Location: Newark
(58.9986°N, 38.5006°E)
Time: 04:18:33
(UTC+00:00)

N. Korean satellite - Pass Details

Date: 16 December 2019
Orbit: 454 x 508 km, 97.2° (Epoch: 18 January)

Event Time Altitude Azimuth Distance (km) Brightness Sun altitude
Rises 14:40:18 0° 182° (S) 2,594 10.6 -14.8°
Reaches altitude 10° 14:42:28 10° 190° (S) 1,708 9.7 -15.0°
Maximum altitude 14:45:58 41° 261° (W) 733 8.0 -15.4°
Drops below altitude 10° 14:49:27 10° 334° (NNW) 1,695 9.4 -15.9°
Sets 14:51:36 0° 342° (NNW) 2,572 10.3 -16.1°
